Date String (YYYY-MM-DD hh:mm:ss) UTC,Instrument flags,absolute air pressure of the measurement (hPa),sample flow rate (lpm),inlet stack bypass flow (lpm),air temperature of the measurement (°C),ambient temperature measured by the external sensor (°C),aerosol sample conditioner tube jacket temperature (°C),OPC LED temperature (°C),internal box temperature (°C),relative humidity of the measurement (%),span deviation,mass concentration of particles derived from Lorenz-Mie calculation of OPC scattering (μg/m³),mass concentration of particles derived from Lorenz-Mie calculation of OPC scattering (μg/m³),mass concentration of particles derived from Lorenz-Mie calculation of OPC scattering (μg/m³)
DateTimeUTC,F1_M11,P_M11,Q1_M11,Q2_M11,T1_M11,T2_M11,T3_M11,T4_M11,T5_M11,U1_M11,ZSPAN_M11,X2_M11,X0_M11,X1_M11
2023-12-26 05:00:00,SystemResetWarning,0824.7,5.00,000.00,018.8,017.9,000.0,027.2,020.0,8.9,0000.0,0002.63,0003.26,0002.41
2023-12-26 05:01:00,SystemResetWarning,0824.7,5.00,000.00,018.8,017.8,000.0,027.2,020.0,8.7,0000.0,0002.66,0003.38,0002.41
2023-12-26 05:02:00,SystemResetWarning,0824.7,5.00,000.00,018.8,017.7,000.0,027.2,020.0,8.7,0000.0,0002.65,0003.35,0002.41
2023-12-26 05:03:00,SystemResetWarning,0824.7,5.00,000.00,018.8,017.7,000.0,027.2,020.0,9.1,0000.0,0002.67,0003.80,0002.41
2023-12-26 05:04:00,SystemResetWarning,0824.7,5.00,000.00,018.7,017.6,000.0,027.2,020.0,9.1,0000.0,0002.66,0003.75,0002.39
2023-12-26 05:05:00,SystemResetWarning,0824.6,5.00,000.00,018.7,017.6,000.0,027.2,020.0,9.0,0000.0,0002.63,0003.65,0002.37
2023-12-26 05:06:00,SystemResetWarning,0824.6,4.99,000.00,018.7,017.5,000.0,027.2,020.0,9.1,0000.0,0002.63,0003.69,0002.35
2023-12-26 05:07:00,SystemResetWarning,0824.6,5.00,000.00,018.7,017.5,000.0,027.2,020.0,8.9,0000.0,0002.61,0003.69,0002.34
2023-12-26 05:08:00,SystemResetWarning,0824.6,5.00,000.00,018.7,017.5,000.0,027.2,020.0,9.2,0000.0,0002.58,0003.68,0002.31
2023-12-26 05:09:00,SystemResetWarning,0824.6,5.00,000.00,018.7,017.5,000.0,027.2,020.0,9.3,0000.0,0002.57,0003.70,0002.29
2023-12-26 05:10:00,SystemResetWarning,0824.6,5.01,000.00,018.7,017.4,000.0,027.2,020.0,9.1,0000.0,0002.55,0003.66,0002.28
2023-12-26 05:11:00,SystemResetWarning,0824.6,5.00,000.00,018.7,017.4,000.0,027.2,020.0,9.4,0000.0,0002.54,0003.62,0002.29
2023-12-26 05:12:00,SystemResetWarning,0824.6,4.99,000.00,018.7,017.4,000.0,027.2,020.0,9.3,0000.0,0002.54,0003.59,0002.31
2023-12-26 05:13:00,SystemResetWarning,0824.5,4.99,000.00,018.7,017.4,000.0,027.2,020.0,9.2,0000.0,0002.54,0003.56,0002.31
2023-12-26 05:14:00,SystemResetWarning,0824.5,5.01,000.00,018.7,017.7,000.0,027.2,020.3,9.3,0000.0,0002.56,0003.26,0002.32
2023-12-26 05:15:00,SystemResetWarning,0824.5,5.02,000.00,018.8,018.6,000.0,027.2,020.7,9.3,0000.0,0002.54,0003.11,0002.32
2023-12-26 05:16:00,SystemResetWarning,0824.5,4.97,000.00,019.0,018.9,000.0,027.2,020.7,9.6,0000.0,0002.55,0003.19,0002.33
2023-12-26 05:17:00,SystemResetWarning,0824.5,5.01,000.00,019.0,018.9,000.0,027.2,020.4,9.4,0000.0,0002.54,0003.13,0002.34
2023-12-26 05:18:00,SystemResetWarning,0824.5,5.01,000.00,019.0,018.8,000.0,027.2,020.2,9.7,0000.0,0002.53,0003.10,0002.33
2023-12-26 05:19:00,SystemResetWarning,0824.5,4.99,000.00,018.9,018.6,000.0,027.2,020.1,9.6,0000.0,0002.55,0003.21,0002.35
2023-12-26 05:20:00,SystemResetWarning,0824.5,4.99,000.00,018.9,018.4,000.0,027.2,020.1,9.5,0000.0,0002.59,0003.88,0002.37
2023-12-26 05:21:00,SystemResetWarning,0824.6,5.00,000.00,018.9,018.3,000.0,027.2,020.0,9.7,0000.0,0002.63,0003.94,0002.41
2023-12-26 05:22:00,SystemResetWarning,0824.6,5.00,000.00,018.8,018.1,000.0,027.2,020.0,10.0,0000.0,0002.68,0004.04,0002.44
2023-12-26 05:23:00,SystemResetWarning,0824.6,5.00,000.00,018.8,018.0,000.0,027.2,020.0,10.0,0000.0,0002.69,0004.03,0002.46
2023-12-26 05:24:00,SystemResetWarning,0824.6,5.00,000.00,018.8,017.9,000.0,027.2,020.0,10.0,0000.0,0002.70,0004.01,0002.48
2023-12-26 05:25:00,SystemResetWarning,0824.6,5.00,000.00,018.8,017.8,000.0,027.2,020.0,10.1,0000.0,0002.70,0004.01,0002.51
2023-12-26 05:26:00,SystemResetWarning,0824.7,5.00,000.00,018.8,017.8,000.0,027.2,020.0,10.0,0000.0,0002.73,0004.07,0002.54
2023-12-26 05:27:00,SystemResetWarning,0824.6,5.00,000.00,018.8,017.7,000.0,027.2,020.0,10.0,0000.0,0002.79,0004.09,0002.60
2023-12-26 05:28:00,SystemResetWarning,0824.6,5.00,000.00,018.7,017.7,000.0,027.2,020.0,10.1,0000.0,0002.82,0004.10,0002.64
2023-12-26 05:29:00,SystemResetWarning,0824.5,5.00,000.00,018.7,017.7,000.0,027.2,020.0,10.2,0000.0,0002.87,0004.27,0002.68
2023-12-26 05:30:00,SystemResetWarning,0824.5,5.00,000.00,018.7,017.6,000.0,027.2,020.0,9.9,0000.0,0002.94,0004.33,0002.73
2023-12-26 05:31:00,SystemResetWarning,0824.6,5.00,000.00,018.7,017.6,000.0,027.2,020.0,9.9,0000.0,0002.96,0003.76,0002.77
2023-12-26 05:32:00,SystemResetWarning,0824.5,5.00,000.00,018.7,017.6,000.0,027.2,020.0,10.1,0000.0,0002.96,0003.71,0002.79
2023-12-26 05:33:00,SystemResetWarning,0824.5,5.00,000.00,018.7,017.5,000.0,027.2,020.0,9.8,0000.0,0002.97,0003.69,0002.81
2023-12-26 05:34:00,SystemResetWarning,0824.5,5.00,000.00,018.7,017.5,000.0,027.2,020.0,9.5,0000.0,0002.98,0003.78,0002.81
2023-12-26 05:35:00,SystemResetWarning,0824.5,5.00,000.00,018.7,017.5,000.0,027.2,020.0,9.4,0000.0,0003.00,0003.97,0002.82
2023-12-26 05:36:00,SystemResetWarning,0824.4,5.00,000.00,018.7,017.5,000.0,027.2,020.0,9.2,0000.0,0003.00,0003.97,0002.81
2023-12-26 05:37:00,SystemResetWarning,0824.4,5.00,000.00,018.7,017.4,000.0,027.2,020.0,9.4,0000.0,0003.01,0004.09,0002.82
2023-12-26 05:38:00,SystemResetWarning,0824.4,5.01,000.00,018.7,017.4,000.0,027.2,020.0,9.3,0000.0,0002.98,0004.11,0002.77
2023-12-26 05:39:00,SystemResetWarning,0824.4,5.01,000.00,018.7,017.4,000.0,027.2,020.0,9.5,0000.0,0002.97,0004.13,0002.75
2023-12-26 05:40:00,SystemResetWarning,0824.4,5.01,000.00,018.7,017.7,000.0,027.2,020.3,9.4,0000.0,0002.96,0004.08,0002.75
2023-12-26 05:41:00,SystemResetWarning,0824.5,4.99,000.00,018.8,018.5,000.0,027.2,020.7,9.1,0000.0,0002.94,0004.05,0002.73
2023-12-26 05:42:00,SystemResetWarning,0824.5,5.00,000.00,019.0,019.1,000.0,027.2,020.8,9.0,0000.0,0002.91,0003.92,0002.70
2023-12-26 05:43:00,SystemResetWarning,0824.4,4.99,000.00,019.0,019.0,000.0,027.2,020.5,8.8,0000.0,0002.89,0003.90,0002.67
2023-12-26 05:44:00,SystemResetWarning,0824.4,5.00,000.00,019.0,018.9,000.0,027.2,020.3,8.9,0000.0,0002.87,0003.92,0002.64
2023-12-26 05:45:00,SystemResetWarning,0824.4,5.01,000.00,019.0,018.7,000.0,027.2,020.2,8.9,0000.0,0002.87,0003.83,0002.64
2023-12-26 05:46:00,SystemResetWarning,0824.4,5.00,000.00,019.0,018.6,000.0,027.2,020.1,8.8,0000.0,0002.86,0003.70,0002.64
2023-12-26 05:47:00,SystemResetWarning,0824.4,4.99,000.00,018.9,018.4,000.0,027.2,020.1,8.7,0000.0,0002.86,0003.75,0002.63
2023-12-26 05:48:00,SystemResetWarning,0824.4,4.99,000.00,018.9,018.3,000.0,027.2,020.1,8.8,0000.0,0002.84,0003.63,0002.62
2023-12-26 05:49:00,SystemResetWarning,0824.4,5.00,000.00,018.9,018.2,000.0,027.2,020.0,8.8,0000.0,0002.82,0003.55,0002.61
2023-12-26 05:50:00,SystemResetWarning,0824.4,5.01,000.00,018.8,018.1,000.0,027.2,020.0,8.6,0000.0,0002.81,0003.53,0002.60
2023-12-26 05:51:00,SystemResetWarning,0824.4,5.01,000.00,018.8,018.0,000.0,027.2,020.0,8.8,0000.0,0002.78,0003.46,0002.57
2023-12-26 05:52:00,SystemResetWarning,0824.4,5.00,000.00,018.8,017.9,000.0,027.2,020.0,9.2,0000.0,0002.72,0003.31,0002.54
2023-12-26 05:53:00,SystemResetWarning,0824.4,5.00,000.00,018.8,017.9,000.0,027.2,020.0,9.4,0000.0,0002.73,0003.37,0002.52
2023-12-26 05:54:00,SystemResetWarning,0824.4,5.00,000.00,018.8,017.9,000.0,027.2,020.0,9.4,0000.0,0002.75,0003.58,0002.50
2023-12-26 05:55:00,SystemResetWarning,0824.3,5.00,000.00,018.8,017.8,000.0,027.2,020.0,9.4,0000.0,0002.72,0003.69,0002.48
2023-12-26 05:56:00,SystemResetWarning,0824.4,5.00,000.00,018.8,017.8,000.0,027.2,020.0,9.7,0000.0,0002.71,0003.68,0002.46
2023-12-26 05:57:00,SystemResetWarning,0824.3,5.00,000.00,018.7,017.8,000.0,027.2,020.0,10.2,0000.0,0002.71,0003.68,0002.45
2023-12-26 05:58:00,SystemResetWarning,0824.3,5.00,000.00,018.7,017.7,000.0,027.2,020.0,10.3,0000.0,0002.68,0003.98,0002.42
2023-12-26 05:59:00,SystemResetWarning,0824.3,5.00,000.00,018.7,017.7,000.0,027.2,020.0,10.1,0000.0,0002.67,0004.51,0002.42
